QPF
0.00 0.00 0.00 0.00 0.00 0.00 0.00 0.00 0.00 0.00 0.00 0.00 0.00 0.00 0.00 0.00 0.00 0.00 0.00 0.00 0.00 0.00 0.00 0.00 0.00 0.00 0.00 0.00 0.00 0.00 0.00 0.00 0.00 0.00 0.00 0.00 0.00 0.00 0.00 0.00 0.00 0.00 0.00 0.00 0.00
0.00 0.00 0.00 0.00 0.00 0.00 0.00 0.00 0.00 0.00 0.00 0.00 0.00 0.00 0.00 0.00 0.00 0.00 0.00 0.00 0.00 0.00 0.00 0.00 0.00 0.00 0.00 0.00 0.00 0.00 0.00 0.00 0.00 0.00 0.00 0.00 0.00 0.00 0.00 0.00 0.00 0.00 0.00 0.00 0.00
0.00 0.00 0.00 0.00 0.00 0.00 0.00 0.00 0.00 0.00 0.00 0.00 0.00 0.00 0.00 0.00 0.00 0.00 0.00 0.00 0.00 0.00 0.00 0.00 0.00 0.00 0.00 0.00 0.00 0.00 0.00 0.00 0.00 0.00 0.00 0.00 0.00 0.00 0.00 0.00 0.00 0.00 0.00 0.00 0.00
0.00 0.00 0.00 0.00 0.00 0.00 0.00 0.00 0.00 0.00 0.00 0.00 0.00 0.00 0.00 0.00 0.00 0.00 0.00 0.00 0.00 0.00 0.00 0.00 0.00 0.00 0.00 0.00 0.00 0.00 0.00 0.00 0.00 0.00 0.00 0.00 0.00 0.00 0.00 0.00 0.00 0.00 0.00 0.00 0.00
0.00 0.00 0.00 0.00 0.00 0.00 0.00 0.00 0.00 0.00 0.00 0.00 0.00 0.00 0.00 0.00 0.00 0.00 0.00 0.00 0.00 0.00 0.00 0.00 0.00 0.00 0.00 0.00 0.00 0.00 0.00 0.00 0.00 0.00 0.00 0.00 0.00 0.00 0.00 0.00 0.00 0.00 0.00 0.00 0.00
0.00 0.00 0.00 0.00 0.00 0.00 0.00 0.00 0.00 0.00 0.00 0.00 0.00 0.00 0.00 0.00 0.00 0.00 0.00 0.00 0.00 0.00 0.00 0.00 0.00 0.00 0.00 0.00 0.00 0.00 0.00 0.00 0.00 0.00 0.00 0.00 0.00 0.00 0.00 0.00 0.00 0.00 0.00 0.00 0.00
0.00 0.00 0.00 0.00 0.00 0.00 0.00 0.00 0.00 0.00 0.00 0.00 0.00 0.00 0.00 0.00 0.00 0.00 0.00 0.00 0.00 0.00 0.00 0.00 0.00 0.00 0.00 0.00 0.00 0.00 0.00 0.00 0.00 0.00 0.00 0.00 0.00 0.00 0.00 0.00 0.00 0.00 0.00 0.00 0.00
0.00 0.00 0.00 0.00 0.00 0.00 0.00 0.00 0.00 0.00 0.00 0.00 0.00 0.00 0.00 0.00 0.00 0.00 0.00 0.00 0.00 0.00 0.00 0.00 0.00 0.00 0.00 0.00 0.00 0.00 0.00 0.00 0.00 0.00 0.00 0.00 0.00 0.00 0.00 0.00 0.00 0.00 0.00 0.00 0.00
0.00 0.00 0.00 0.00 0.00 0.00 0.00 0.00 0.00 0.00 0.00 0.00 0.00 0.00 0.00 0.00 0.00 0.00 0.00 0.00 0.00 0.00 0.00 0.00 0.00 0.00 0.00 0.00 0.00 0.00 0.00 0.00 0.00 0.00 0.00 0.00 0.00 0.00 0.00 0.00 0.00 0.00 0.00 0.00 0.00
0.00 0.00 0.00 0.00 0.00 0.00 0.00 0.00 0.00 0.00 0.00 0.00 0.00 0.00 0.00 0.00 0.00 0.00 0.00 0.00 0.00 0.00 0.00 0.00 0.00 0.00 0.00 0.00 0.00 0.00 0.00 0.00 0.00 0.00 0.00 0.00 0.00 0.00 0.00 0.00 0.00 0.00 0.00 0.00 0.00
0.00 0.00 0.00 0.00 0.00 0.00 0.00 0.00 0.00 0.00 0.00 0.00 0.00 0.00 0.00 0.00 0.00 0.00 0.00 0.00 0.00 0.00 0.00 0.00 0.00 0.00 0.00 0.00 0.00 0.00 0.00 0.00 0.00 0.00 0.00 0.00 0.00 0.00 0.00 0.00 0.00 0.00 0.00 0.00 0.00
0.00 0.00 0.00 0.00 0.00 0.00 0.00 0.00 0.00 0.00 0.00 0.00 0.00 0.00 0.00 0.00 0.00 0.00 0.00 0.00 0.00 0.00 0.00 0.00 0.00 0.00 0.00 0.00 0.00 0.00 0.00 0.00 0.00 0.00 0.00 0.00 0.00 0.00 0.00 0.00 0.00 0.00 0.00 0.00 0.00
0.00 0.00 0.00 0.00 0.00 0.00 0.00 0.00 0.00 0.00 0.00 0.00 0.00 0.00 0.00 0.00 0.00 0.00 0.00 0.00 0.00 0.00 0.00 0.00 0.00 0.00 0.00 0.00 0.00 0.00 0.00 0.00 0.00 0.00 0.00 0.00 0.00 0.00 0.00 0.00 0.00 0.00 0.00 0.00 0.00
0.00 0.00 0.00 0.00 0.00 0.00 0.00 0.00 0.00 0.00 0.00 0.00 0.00 0.00 0.00 0.00 0.00 0.00 0.00 0.00 0.00 0.00 0.00 0.00 0.00 0.00 0.00 0.00 0.00 0.00 0.00 0.00 0.00 0.00 0.00 0.00 0.00 0.00 0.00 0.00 0.00 0.00 0.00 0.00 0.00
0.00 0.00 0.00 0.00 0.00 0.00 0.00 0.00 0.00 0.00 0.00 0.00 0.00 0.00 0.00 0.00 0.00 0.00 0.00 0.00 0.00 0.00 0.00 0.00 0.00 0.00 0.00 0.00 0.00 0.00 0.00 0.00 0.00 0.00 0.00 0.00 0.00 0.00 0.00 0.00 0.00 0.00 0.00 0.00 0.00
0.00 0.00 0.00 0.00 0.00 0.00 0.00 0.00 0.00 0.00 0.00 0.00 0.00 0.00 0.00 0.00 0.00 0.00 0.00 0.00 0.00 0.00 0.00 0.00 0.00 0.00 0.00 0.00 0.00 0.00 0.00 0.00 0.00 0.00 0.00 0.00 0.00 0.00 0.00 0.00 0.00 0.00 0.00 0.00 0.00
0.00 0.00 0.00 0.00 0.00 0.00 0.00 0.00 0.00 0.00 0.00 0.00 0.00 0.00 0.00 0.00 0.00 0.00 0.00 0.00 0.00 0.00 0.00 0.00 0.00 0.00 0.00 0.00 0.00 0.00 0.00 0.00 0.00 0.00 0.00 0.00 0.00 0.00 0.00 0.00 0.00 0.00 0.00 0.00 0.00
0.00 0.00 0.00 0.00 0.00 0.00 0.00 0.00 0.00 0.00 0.00 0.00 0.00 0.00 0.00 0.00 0.00 0.00 0.00 0.00 0.00 0.00 0.00 0.00 0.00 0.00 0.00 0.00 0.00 0.00 0.00 0.00 0.00 0.00 0.00 0.00 0.00 0.00 0.00 0.00 0.00 0.00 0.00 0.00 0.00
0.00 0.00 0.00 0.00 0.00 0.00 0.00 0.00 0.00 0.00 0.00 0.00 0.00 0.00 0.00 0.00 0.00 0.00 0.00 0.00 0.00 0.00 0.00 0.00 0.00 0.00 0.00 0.00 0.00 0.00 0.00 0.00 0.00 0.00 0.00 0.00 0.00 0.00 0.00 0.00 0.00 0.00 0.00 0.00 0.00
0.00 0.00 0.00 0.00 0.00 0.00 0.00 0.00 0.00 0.00 0.00 0.00 0.00 0.00 0.00 0.00 0.00 0.00 0.00 0.00 0.00 0.00 0.00 0.00 0.00 0.00 0.00 0.00 0.00 0.00 0.00 0.00 0.00 0.00 0.00 0.00 0.00 0.00 0.00 0.00 0.00 0.00 0.00 0.00 0.00
0.00 0.00 0.00 0.00 0.00 0.00 0.00 0.00 0.00 0.00 0.00 0.00 0.00 0.00 0.00 0.00 0.00 0.00 0.00 0.00 0.00 0.00 0.00 0.00 0.00 0.00 0.00 0.00 0.00 0.00 0.00 0.00 0.00 0.00 0.00 0.00 0.00 0.00 0.00 0.00 0.00 0.00 0.00 0.00 0.00
0.00 0.00 0.00 0.00 0.00 0.00 0.00 0.00 0.00 0.00 0.00 0.00 0.00 0.00 0.00 0.00 0.00 0.00 0.00 0.00 0.00 0.00 0.00 0.00 0.00 0.00 0.00 0.00 0.00 0.00 0.00 0.00 0.00 0.00 0.00 0.00 0.00 0.00 0.00 0.00 0.00 0.00 0.00 0.00 0.00
0.00 0.00 0.00 0.00 0.00 0.00 0.00 0.00 0.00 0.00 0.00 0.00 0.00 0.00 0.00 0.00 0.00 0.00 0.00 0.00 0.00 0.00 0.00 0.00 0.00 0.00 0.00 0.00 0.00 0.00 0.00 0.00 0.00 0.00 0.00 0.00 0.00 0.00 0.00 0.00 0.00 0.00 0.00 0.00 0.00
0.00 0.00 0.00 0.00 0.00 0.00 0.00 0.00 0.00 0.00 0.00 0.00 0.00 0.00 0.00 0.00 0.00 0.00 0.00 0.00 0.00 0.00 0.00 0.00 0.00 0.00 0.00 0.00 0.00 0.00 0.00 0.00 0.00 0.00 0.00 0.00 0.00 0.00 0.00 0.00 0.00 0.00 0.00 0.00 0.00
0.00 0.00 0.00 0.00 0.00 0.00 0.00 0.00 0.00 0.00 0.00 0.00 0.00 0.00 0.00 0.00 0.00 0.00 0.00 0.00 0.00 0.00 0.00 0.00 0.00 0.00 0.00 0.00 0.00 0.00 0.00 0.00 0.00 0.00 0.00 0.00 0.00 0.00 0.00 0.00 0.00 0.00 0.00 0.00 0.00
0.00 0.00 0.00 0.00 0.00 0.00 0.00 0.00 0.00 0.00 0.00 0.00 0.00 0.00 0.00 0.00 0.00 0.00 0.00 0.00 0.00 0.00 0.00 0.00 0.00 0.00 0.00 0.00 0.00 0.00 0.00 0.00 0.00 0.00 0.00 0.00 0.00 0.00 0.00 0.00 0.00 0.00 0.00 0.00 0.00
0.00 0.00 0.00 0.00 0.00 0.00 0.00 0.00 0.00 0.00 0.00 0.00 0.00 0.00 0.00 0.00 0.00 0.00 0.00 0.00 0.00 0.00 0.00 0.00 0.00 0.00 0.00 0.00 0.00 0.00 0.00 0.00 0.00 0.00 0.00 0.00 0.00 0.00 0.00 0.00 0.00 0.00 0.00 0.00 0.00
MSLP
1018.26 1017.99 1017.80 1017.64 1017.69 1017.56 1017.58 1017.58 1017.26 1017.17 1017.04 1016.95 1016.70 1016.61 1016.54 1016.37 1016.01 1015.62 1014.52 1011.63 1011.64 1011.41 1011.40 1011.98 1012.31 1012.50 1012.84 1012.89 1012.98 1013.14 1013.87 1014.29 1013.53 1013.15 1012.65 1012.25 1012.17 1012.91 1012.87 1013.45 1013.87 1014.40 1014.94 1015.36 1016.37
1017.86 1017.64 1017.42 1017.46 1017.32 1017.35 1017.28 1017.35 1017.21 1016.97 1016.94 1016.83 1016.72 1016.60 1016.61 1016.49 1015.95 1014.09 1010.43 1010.49 1010.98 1011.12 1011.65 1011.94 1012.29 1012.56 1012.90 1012.75 1012.90 1012.89 1013.65 1013.23 1012.28 1012.12 1012.23 1012.22 1012.14 1012.80 1013.33 1013.97 1014.85 1015.35 1015.66 1015.96 1016.77
1017.56 1017.33 1017.10 1017.04 1017.16 1017.06 1017.06 1017.10 1016.97 1016.83 1016.88 1016.76 1016.62 1016.65 1016.71 1016.51 1015.33 1011.02 1009.01 1009.73 1010.54 1011.06 1011.36 1011.65 1011.96 1012.38 1012.64 1012.50 1012.47 1012.62 1012.65 1012.27 1011.85 1011.62 1011.61 1012.08 1012.44 1012.93 1013.47 1014.48 1014.80 1015.07 1015.98 1016.72 1017.24
1017.15 1017.05 1016.82 1016.70 1016.85 1016.94 1016.88 1016.80 1016.71 1016.66 1016.71 1016.61 1016.64 1016.73 1016.65 1016.30 1013.50 1009.58 1008.95 1009.42 1010.38 1011.02 1011.26 1011.55 1011.94 1012.22 1012.21 1012.15 1011.86 1012.13 1011.59 1011.63 1011.36 1010.70 1011.55 1011.84 1012.46 1013.01 1013.34 1013.40 1013.66 1014.27 1015.14 1016.37 1017.10
1016.76 1016.78 1016.47 1016.50 1016.52 1016.65 1016.56 1016.53 1016.49 1016.56 1016.48 1016.59 1016.63 1016.72 1016.47 1015.22 1011.91 1009.53 1009.33 1009.62 1010.47 1010.93 1011.16 1011.58 1011.82 1011.70 1011.62 1011.54 1011.53 1011.58 1011.16 1011.07 1010.83 1011.02 1011.48 1011.71 1012.49 1013.03 1013.42 1013.73 1014.34 1015.24 1015.59 1016.39 1017.07
1016.34 1016.35 1016.11 1016.14 1016.18 1016.35 1016.29 1016.33 1016.31 1016.39 1016.45 1016.63 1016.75 1016.79 1016.30 1013.49 1009.28 1009.36 1009.47 1010.13 1010.07 1010.56 1010.96 1011.27 1010.89 1010.76 1010.94 1011.12 1011.15 1010.88 1011.18 1011.08 1011.12 1011.32 1011.57 1012.10 1012.90 1013.02 1013.79 1014.35 1015.10 1015.48 1015.99 1016.59 1016.98
1015.91 1015.89 1015.82 1015.78 1015.88 1016.02 1015.99 1016.03 1016.16 1016.36 1016.44 1016.69 1016.78 1016.67 1015.35 1010.98 1008.94 1009.11 1009.37 1009.33 1009.48 1009.65 1010.28 1010.37 1010.42 1010.60 1010.60 1010.74 1010.62 1010.90 1011.37 1011.35 1011.53 1011.68 1012.29 1012.25 1013.46 1013.98 1014.43 1015.00 1015.45 1015.92 1016.71 1017.34 1017.70
1015.57 1015.54 1015.49 1015.49 1015.62 1015.75 1015.74 1015.94 1016.14 1016.29 1016.45 1016.70 1016.63 1016.39 1013.34 1009.18 1008.73 1008.88 1008.67 1008.62 1008.86 1009.14 1009.41 1009.38 1009.99 1010.76 1010.77 1010.81 1011.22 1011.61 1012.16 1012.36 1012.12 1011.98 1012.75 1012.97 1014.70 1015.51 1015.74 1015.59 1016.76 1017.13 1017.42 1017.84 1018.24
1015.34 1015.15 1015.09 1015.17 1015.30 1015.54 1015.76 1016.02 1016.16 1016.31 1016.51 1016.62 1016.53 1015.60 1011.78 1008.69 1008.60 1007.91 1007.92 1008.13 1008.24 1008.62 1009.18 1009.49 1009.85 1010.59 1010.98 1011.43 1012.18 1012.76 1012.88 1012.62 1012.55 1012.68 1013.30 1014.30 1016.23 1017.27 1016.91 1017.01 1017.77 1018.04 1018.37 1018.67 1018.95
1015.01 1014.72 1014.70 1014.88 1015.21 1015.60 1015.97 1016.17 1016.28 1016.39 1016.51 1016.35 1015.70 1014.83 1010.76 1009.11 1008.35 1007.91 1007.54 1007.84 1008.00 1008.33 1008.95 1009.36 1009.96 1010.72 1011.47 1011.84 1012.87 1013.17 1013.20 1013.21 1013.28 1013.76 1014.64 1016.13 1018.04 1018.42 1018.26 1018.29 1018.99 1019.15 1019.32 1019.64 1019.73
1014.41 1014.41 1014.34 1014.72 1015.16 1015.68 1016.23 1016.42 1016.48 1016.12 1015.47 1013.67 1012.94 1011.79 1010.14 1009.04 1008.46 1008.13 1007.72 1007.67 1008.22 1008.82 1009.70 1010.08 1011.07 1011.95 1012.23 1012.09 1012.30 1012.67 1012.95 1013.65 1014.10 1014.64 1016.24 1018.27 1018.93 1019.41 1019.40 1019.54 1019.80 1020.02 1020.11 1020.25 1020.39
1014.02 1014.08 1014.15 1014.64 1015.10 1015.78 1016.13 1015.11 1012.59 1012.06 1012.52 1011.71 1011.44 1010.75 1009.62 1009.19 1008.79 1008.26 1007.97 1008.46 1008.99 1009.86 1010.36 1011.05 1011.75 1011.90 1012.01 1012.01 1012.21 1012.64 1013.46 1014.28 1015.10 1015.66 1016.68 1018.61 1019.65 1019.96 1019.92 1020.26 1020.44 1020.52 1020.62 1020.61 1020.63
1013.82 1013.71 1014.10 1014.82 1015.15 1015.94 1015.14 1012.89 1011.32 1011.46 1011.78 1010.71 1010.09 1009.46 1008.62 1008.86 1008.68 1008.41 1008.35 1008.79 1009.47 1010.22 1010.86 1011.56 1012.10 1011.94 1012.05 1012.16 1012.46 1013.32 1013.96 1014.53 1015.45 1016.41 1017.37 1018.25 1019.94 1020.42 1020.50 1020.53 1020.65 1020.70 1020.73 1020.82 1020.89
1013.63 1013.50 1014.18 1014.86 1015.52 1014.46 1013.65 1011.17 1011.14 1011.46 1011.70 1010.56 1009.27 1008.10 1008.04 1008.30 1008.68 1008.46 1008.58 1009.06 1009.96 1010.90 1011.54 1012.14 1012.22 1012.35 1012.26 1012.56 1012.94 1013.59 1014.18 1014.75 1015.88 1016.63 1017.98 1018.43 1020.61 1020.76 1020.86 1021.02 1021.14 1021.13 1021.07 1021.08 1021.03
1013.38 1013.34 1013.95 1014.00 1013.92 1013.35 1011.53 1010.97 1011.24 1011.56 1012.06 1010.51 1008.86 1007.59 1008.00 1008.70 1009.12 1009.26 1009.12 1008.98 1010.23 1011.21 1012.09 1012.74 1012.64 1012.59 1012.71 1012.88 1013.08 1013.99 1014.47 1015.51 1016.43 1017.48 1018.35 1019.21 1019.93 1020.55 1020.93 1021.24 1021.26 1021.29 1021.36 1021.35 1021.22
1012.94 1013.29 1014.12 1014.72 1013.82 1011.79 1011.20 1011.06 1011.53 1012.56 1011.64 1010.20 1008.94 1008.40 1008.65 1009.11 1009.56 1009.66 1009.67 1009.85 1010.92 1011.95 1012.37 1012.93 1012.74 1012.87 1012.96 1013.12 1013.47 1013.99 1014.98 1016.38 1017.37 1018.45 1019.43 1019.37 1019.82 1020.57 1020.35 1019.92 1020.70 1021.10 1021.28 1021.57 1021.73
1012.62 1013.24 1013.72 1012.58 1011.96 1011.15 1011.23 1011.71 1013.05 1012.66 1011.42 1010.51 1009.67 1009.26 1009.46 1010.17 1010.68 1010.80 1011.42 1011.91 1012.35 1013.08 1014.04 1013.81 1013.70 1013.41 1013.26 1013.48 1013.96 1014.66 1016.12 1017.90 1019.35 1020.04 1020.36 1019.72 1019.84 1019.06 1019.01 1019.23 1019.75 1020.47 1021.15 1021.76 1022.08
1012.51 1013.29 1012.90 1012.01 1011.22 1011.23 1011.64 1012.58 1013.50 1012.30 1011.32 1010.36 1009.98 1010.08 1010.45 1010.88 1011.64 1011.99 1012.51 1013.17 1013.20 1013.44 1014.62 1014.70 1014.55 1013.99 1013.77 1013.86 1014.38 1015.38 1016.58 1018.23 1020.01 1021.03 1020.82 1020.15 1019.78 1018.65 1018.45 1018.79 1019.31 1020.17 1021.15 1021.87 1022.27
1012.69 1013.60 1012.72 1010.94 1010.90 1011.50 1012.47 1014.03 1013.15 1012.06 1010.84 1010.42 1010.32 1010.68 1011.10 1011.45 1011.96 1012.71 1013.48 1013.91 1014.01 1013.93 1014.38 1014.89 1014.79 1014.19 1014.05 1014.01 1014.59 1015.70 1016.95 1018.19 1020.09 1021.94 1021.84 1021.10 1019.94 1018.90 1018.74 1019.31 1019.79 1020.52 1021.30 1022.12 1022.68
1012.22 1012.55 1011.52 1010.71 1010.80 1011.46 1012.91 1013.52 1012.71 1011.41 1010.38 1010.14 1010.56 1010.89 1011.55 1011.97 1012.62 1013.26 1013.87 1014.35 1014.35 1014.35 1014.27 1014.94 1015.22 1015.00 1014.57 1014.52 1015.06 1015.57 1017.04 1018.58 1020.26 1022.22 1023.02 1021.93 1020.92 1019.86 1019.59 1019.66 1020.06 1020.82 1021.55 1022.42 1023.10
1011.75 1011.82 1011.08 1010.70 1010.91 1012.24 1013.60 1013.29 1012.17 1010.74 1010.09 1009.94 1010.42 1011.03 1011.74 1012.40 1013.07 1013.82 1014.39 1014.66 1014.60 1014.59 1014.52 1015.09 1015.70 1016.20 1015.58 1015.68 1015.90 1016.43 1017.44 1019.12 1020.78 1022.39 1023.23 1022.82 1021.27 1019.39 1019.22 1019.40 1020.06 1020.89 1021.60 1022.37 1022.94
1011.53 1011.70 1011.06 1010.72 1012.09 1013.56 1013.54 1012.61 1011.62 1010.39 1009.78 1009.70 1010.09 1010.90 1011.85 1012.77 1013.65 1014.29 1014.64 1014.80 1014.91 1015.03 1015.47 1016.01 1016.79 1017.44 1016.92 1016.30 1016.29 1016.56 1017.56 1019.01 1021.08 1022.98 1023.61 1023.23 1020.94 1019.55 1019.46 1019.61 1020.26 1021.18 1021.85 1022.63 1023.07
1011.20 1011.70 1011.15 1010.93 1012.68 1013.67 1013.13 1012.35 1011.50 1010.41 1009.94 1009.89 1010.47 1011.05 1012.06 1013.25 1014.20 1014.76 1015.05 1015.22 1015.26 1015.54 1016.00 1016.52 1017.69 1018.38 1018.06 1017.54 1016.87 1017.06 1017.97 1019.15 1020.54 1021.99 1022.96 1023.31 1020.83 1019.74 1019.62 1020.02 1020.71 1021.54 1022.36 1023.05 1023.37
1010.83 1012.24 1012.43 1012.38 1012.92 1012.83 1012.94 1012.39 1011.44 1010.40 1010.19 1010.25 1010.89 1011.31 1012.52 1013.78 1014.28 1015.04 1015.47 1015.66 1015.82 1016.23 1016.63 1016.98 1018.55 1019.04 1018.86 1018.37 1018.06 1017.92 1018.26 1019.09 1020.05 1021.74 1022.40 1021.61 1020.55 1020.19 1020.31 1020.60 1021.23 1022.05 1022.68 1023.12 1023.42
1010.66 1011.65 1011.76 1013.04 1013.52 1013.00 1012.63 1012.37 1011.56 1010.80 1010.49 1010.68 1011.37 1011.81 1012.73 1014.18 1014.87 1015.42 1015.87 1016.21 1016.57 1017.02 1017.55 1018.19 1019.70 1020.25 1020.11 1019.67 1019.03 1018.62 1018.55 1019.03 1019.86 1020.30 1020.99 1020.29 1020.28 1019.72 1019.89 1020.46 1021.18 1021.94 1022.67 1023.17 1023.54
1010.45 1011.19 1012.06 1012.61 1012.60 1013.00 1012.88 1012.45 1011.89 1011.48 1011.45 1011.54 1011.99 1012.82 1013.28 1014.14 1014.63 1015.45 1016.00 1016.61 1016.96 1017.91 1018.78 1019.75 1021.22 1021.70 1021.63 1020.99 1020.49 1019.62 1018.94 1018.92 1019.27 1019.54 1019.77 1019.79 1019.56 1019.10 1019.56 1020.42 1021.39 1021.83 1022.43 1022.90 1023.19
1009.72 1010.14 1010.79 1013.16 1013.26 1013.20 1012.98 1012.43 1012.07 1011.90 1012.29 1012.31 1012.56 1013.41 1014.35 1014.84 1015.30 1015.76 1016.33 1016.92 1017.44 1018.45 1020.00 1021.11 1022.14 1023.26 1023.38 1022.40 1021.26 1020.09 1018.21 1018.12 1018.20 1018.28 1018.68 1019.34 1018.75 1019.27 1019.87 1020.18 1020.64 1021.52 1022.03 1022.35 1022.65
Thickness
5619 5618 5616 5616 5614 5615 5613 5612 5615 5615 5615 5615 5616 5617 5617 5620 5624 5631 5637 5663 5668 5672 5675 5673 5674 5675 5674 5672 5676 5674 5647 5639 5655 5660 5669 5686 5684 5680 5691 5683 5686 5687 5683 5684 5678
5617 5617 5616 5613 5613 5612 5613 5611 5612 5613 5613 5613 5614 5615 5615 5617 5622 5635 5672 5673 5671 5672 5668 5667 5664 5666 5660 5668 5669 5663 5643 5651 5673 5676 5670 5678 5684 5676 5678 5677 5672 5672 5677 5679 5675
5615 5615 5616 5614 5611 5611 5610 5608 5610 5611 5610 5612 5614 5614 5613 5614 5625 5657 5681 5678 5673 5671 5672 5671 5669 5665 5661 5667 5669 5664 5653 5668 5678 5685 5685 5678 5676 5679 5675 5668 5672 5673 5669 5669 5668
5614 5613 5614 5613 5610 5608 5607 5607 5609 5610 5610 5611 5612 5612 5612 5614 5631 5671 5681 5680 5674 5671 5670 5667 5664 5660 5659 5661 5673 5665 5674 5678 5680 5694 5684 5678 5678 5677 5682 5686 5691 5688 5683 5675 5670
5615 5612 5614 5612 5609 5606 5607 5606 5608 5608 5610 5610 5609 5610 5612 5623 5639 5672 5678 5677 5672 5669 5665 5662 5659 5663 5660 5665 5671 5671 5680 5686 5687 5686 5684 5684 5678 5679 5681 5685 5685 5680 5680 5674 5671
5615 5613 5614 5611 5609 5605 5605 5605 5606 5606 5607 5607 5607 5608 5610 5624 5672 5674 5676 5674 5675 5672 5668 5668 5670 5673 5670 5671 5674 5680 5681 5682 5683 5680 5682 5677 5678 5686 5681 5679 5677 5677 5675 5672 5672
5614 5613 5612 5611 5607 5604 5604 5604 5604 5604 5604 5604 5605 5608 5616 5642 5675 5676 5677 5680 5681 5682 5675 5679 5681 5679 5680 5677 5687 5681 5674 5678 5679 5684 5678 5683 5675 5674 5676 5676 5675 5674 5670 5667 5666
5614 5613 5611 5609 5605 5602 5603 5602 5602 5602 5601 5601 5605 5607 5625 5669 5675 5677 5683 5684 5688 5689 5688 5692 5687 5678 5680 5684 5674 5670 5660 5649 5674 5683 5677 5679 5650 5661 5666 5673 5663 5664 5665 5662 5659
5611 5613 5611 5608 5604 5601 5600 5599 5600 5600 5600 5601 5603 5609 5630 5671 5668 5685 5688 5684 5691 5691 5688 5690 5686 5675 5675 5663 5653 5651 5643 5659 5667 5678 5676 5671 5653 5647 5657 5662 5657 5655 5654 5654 5652
5610 5613 5612 5608 5602 5599 5598 5597 5598 5598 5599 5601 5606 5613 5646 5653 5671 5681 5691 5690 5689 5690 5687 5685 5673 5665 5659 5657 5633 5644 5649 5654 5660 5669 5651 5645 5631 5637 5644 5650 5644 5643 5643 5643 5642
5612 5612 5611 5606 5601 5598 5595 5595 5598 5602 5603 5624 5631 5635 5649 5662 5674 5676 5688 5688 5686 5678 5664 5669 5653 5642 5658 5664 5665 5663 5662 5654 5657 5661 5638 5624 5626 5629 5634 5636 5636 5636 5636 5636 5635
5612 5613 5610 5605 5602 5598 5596 5605 5626 5630 5620 5634 5636 5641 5654 5663 5654 5669 5686 5673 5670 5656 5666 5654 5647 5664 5667 5667 5665 5661 5649 5649 5648 5649 5640 5628 5620 5626 5631 5632 5632 5632 5630 5631 5632
5611 5613 5608 5602 5601 5595 5601 5621 5635 5636 5621 5637 5644 5649 5661 5663 5657 5664 5679 5674 5666 5660 5656 5646 5657 5666 5663 5658 5658 5653 5648 5652 5644 5643 5637 5633 5619 5618 5627 5629 5629 5629 5629 5628 5626
5609 5611 5606 5601 5597 5606 5612 5637 5639 5638 5605 5627 5646 5658 5666 5666 5656 5676 5681 5673 5661 5647 5652 5649 5657 5656 5655 5654 5655 5651 5655 5652 5638 5637 5619 5632 5596 5616 5619 5620 5621 5623 5621 5620 5621
5607 5610 5606 5607 5612 5614 5634 5639 5640 5635 5571 5633 5649 5677 5669 5658 5658 5664 5676 5676 5658 5655 5653 5646 5653 5651 5649 5656 5661 5650 5653 5648 5643 5628 5623 5621 5601 5606 5611 5610 5611 5611 5613 5613 5615
5607 5607 5603 5601 5610 5629 5637 5640 5636 5592 5584 5634 5652 5652 5653 5657 5658 5665 5665 5672 5665 5648 5649 5648 5659 5656 5656 5658 5659 5659 5647 5632 5624 5617 5595 5621 5608 5599 5604 5616 5612 5612 5610 5608 5607
5606 5605 5604 5616 5624 5635 5638 5632 5591 5577 5634 5633 5641 5652 5650 5641 5645 5649 5642 5638 5638 5627 5625 5636 5640 5649 5656 5651 5651 5642 5627 5594 5596 5578 5585 5613 5606 5613 5621 5620 5619 5613 5606 5601 5598
5603 5601 5608 5620 5630 5635 5634 5613 5598 5617 5625 5645 5645 5645 5639 5644 5640 5639 5637 5628 5639 5636 5617 5614 5605 5640 5649 5647 5640 5635 5626 5595 5593 5574 5596 5610 5602 5615 5624 5623 5620 5613 5603 5595 5592
5598 5594 5608 5627 5632 5632 5619 5575 5598 5615 5642 5641 5644 5637 5637 5643 5640 5633 5628 5626 5632 5637 5625 5615 5621 5643 5646 5648 5645 5631 5613 5621 5590 5576 5581 5589 5611 5621 5617 5613 5610 5606 5599 5590 5584
5597 5601 5615 5626 5631 5629 5603 5597 5619 5636 5649 5649 5633 5638 5629 5635 5631 5627 5628 5628 5631 5633 5637 5627 5616 5632 5640 5644 5638 5637 5626 5607 5586 5586 5577 5585 5596 5597 5609 5608 5607 5601 5593 5583 5574
5596 5599 5615 5624 5628 5614 5589 5605 5625 5643 5651 5649 5638 5634 5632 5630 5627 5621 5620 5625 5629 5632 5634 5629 5618 5615 5631 5624 5622 5622 5617 5603 5596 5576 5568 5555 5587 5610 5612 5614 5604 5595 5588 5579 5572
5591 5589 5612 5621 5600 5585 5602 5619 5634 5646 5654 5653 5649 5643 5631 5627 5619 5617 5617 5622 5624 5629 5625 5622 5604 5588 5618 5628 5629 5631 5623 5608 5577 5592 5548 5539 5582 5612 5608 5609 5601 5590 5583 5571 5564
5588 5593 5608 5616 5580 5563 5609 5625 5634 5643 5648 5650 5644 5643 5633 5620 5610 5613 5614 5621 5623 5625 5621 5621 5598 5581 5599 5612 5624 5627 5617 5602 5591 5571 5578 5553 5583 5607 5604 5599 5593 5579 5570 5561 5554
5587 5578 5590 5594 5596 5606 5615 5622 5629 5645 5646 5647 5639 5639 5627 5618 5613 5608 5611 5618 5622 5620 5615 5619 5600 5600 5589 5607 5607 5616 5616 5607 5601 5564 5576 5570 5601 5602 5596 5591 5579 5570 5561 5553 5546
5584 5583 5597 5576 5589 5607 5616 5622 5627 5634 5646 5643 5638 5637 5628 5615 5613 5608 5612 5614 5617 5615 5612 5611 5600 5601 5598 5597 5606 5613 5615 5605 5601 5598 5589 5598 5591 5599 5594 5587 5574 5565 5553 5545 5537
5585 5586 5585 5593 5604 5608 5606 5617 5625 5633 5636 5636 5631 5629 5630 5613 5619 5606 5610 5611 5614 5609 5604 5594 5579 5587 5597 5588 5586 5599 5605 5602 5599 5600 5591 5595 5593 5597 5588 5573 5564 5558 5548 5539 5531
5587 5595 5600 5572 5590 5598 5598 5621 5625 5630 5627 5630 5632 5621 5619 5620 5616 5611 5608 5605 5610 5608 5588 5576 5559 5568 5572 5562 5568 5575 5602 5600 5601 5600 5597 5584 5597 5582 5579 5573 5565 5550 5542 5534 5526